GW2980 Weather Reports


time (UTC)temp
C
wind
direction
speed
KPH
gust
KPH
rain 1hr
cm
rain 24hr
cm
rain mn
cm
humidity
%
barometer
mb
20260509070936 15 0.0 0.0 0.00 0.00 0.00 70 944.0
20260509070636 15 0.0 0.0 0.00 0.00 0.00 70 944.0
20260509065435 12 0.0 0.0 0.00 0.00 0.00 79 944.0
20260509065136 12 0.0 0.0 0.00 0.00 0.00 79 944.0
20260509064835 12 0.0 0.0 0.00 0.00 0.00 79 944.0
20260509063936 11 0.0 0.0 0.00 0.00 0.00 80 944.8
20260509063635 11 0.0 0.0 0.00 0.00 0.00 80 944.8
20260509063336 11 0.0 0.0 0.00 0.00 0.00 80 944.8
20260509063036 11 0.0 0.0 0.00 0.00 0.00 80 944.8
20260509062436 11 0.0 0.0 0.00 0.00 0.00 80 944.8
20260509062136 11 0.0 0.0 0.00 0.00 0.00 80 944.8
20260509061836 11 0.0 0.0 0.00 0.00 0.00 80 944.0
20260509061536 11 0.0 0.0 0.00 0.00 0.00 80 944.0
20260509060936 11 0.0 0.0 0.00 0.00 0.00 80 944.0
20260509060636 11 0.0 0.0 0.00 0.00 0.00 80 944.0
20260509060336 11 0.0 0.0 0.00 0.00 0.00 80 944.0
20260509060036 11 0.0 0.0 0.00 0.00 0.00 80 944.0
20260509055736 11 0.0 0.0 0.00 0.00 0.00 80 944.0
20260509055435 11 0.0 0.0 0.00 0.00 0.00 80 944.0
20260509055136 11 0.0 0.0 0.00 0.00 0.00 80 944.0
20260509054835 11 0.0 0.0 0.00 0.00 0.00 80 944.0
20260509054535 11 0.0 0.0 0.00 0.00 0.00 80 944.0
20260509054236 11 0.0 0.0 0.00 0.00 0.00 80 944.6
20260509053936 11 0.0 0.0 0.00 0.00 0.00 80 944.6
20260509053636 11 0.0 0.0 0.00 0.00 0.00 80 944.6
20260509053036 11 0.0 0.0 0.00 0.00 0.00 80 944.6
20260509052736 11 0.0 0.0 0.00 0.00 0.00 80 944.6
20260509052436 11 0.0 0.0 0.00 0.00 0.00 81 944.0
20260509051836 11 0.0 0.0 0.00 0.00 0.00 81 944.0
20260509051535 11 0.0 0.0 0.00 0.00 0.00 81 944.0
20260509051236 11 0.0 0.0 0.00 0.00 0.00 80 944.0
20260509050936 11 0.0 0.0 0.00 0.00 0.00 80 944.0
20260509050636 11 0.0 0.0 0.00 0.00 0.00 80 944.0
20260509050335 11 0.0 0.0 0.00 0.00 0.00 80 944.0
20260509050036 11 0.0 0.0 0.00 0.00 0.00 80 944.0
20260509045736 11 0.0 0.0 0.00 0.00 0.00 80 944.0
20260509045135 11 0.0 0.0 0.00 0.00 0.00 80 944.0
20260509044535 11 0.0 0.0 0.00 0.00 0.00 80 944.6
20260509043935 11 0.0 0.0 0.00 0.00 0.00 80 944.6
20260509043636 11 0.0 0.0 0.00 0.00 0.00 80 944.6
20260509043336 11 0.0 0.0 0.00 0.00 0.00 80 944.6
20260509043036 11 0.0 0.0 0.00 0.00 0.00 80 944.6
20260509042736 11 0.0 0.0 0.00 0.00 0.00 79 944.0
20260509042435 11 0.0 0.0 0.00 0.00 0.00 79 944.0
20260509042136 11 0.0 0.0 0.00 0.00 0.00 77 944.0
20260509041835 11 0.0 0.0 0.00 0.00 0.00 77 944.0
20260509041236 11 0.0 0.0 0.00 0.00 0.00 76 944.0
20260509040935 11 0.0 0.0 0.00 0.00 0.00 76 944.0
20260509040635 11 0.0 0.0 0.00 0.00 0.00 76 944.0
20260509040335 11 0.0 0.0 0.00 0.00 0.00 76 944.0
20260509040036 11 0.0 0.0 0.00 0.00 0.00 76 944.0
20260509035736 11 0.0 0.0 0.00 0.00 0.00 76 944.0
20260509035436 11 0.0 0.0 0.00 0.00 0.00 76 944.0
20260509035135 11 0.0 0.0 0.00 0.00 0.00 76 944.0
20260509034536 11 0.0 0.0 0.00 0.00 0.00 77 945.0
20260509034236 11 0.0 0.0 0.00 0.00 0.00 77 945.0
20260509033936 11 0.0 0.0 0.00 0.00 0.00 75 945.0
20260509033635 11 0.0 0.0 0.00 0.00 0.00 75 944.0
20260509033336 11 0.0 0.0 0.00 0.00 0.00 75 944.0
20260509033035 11 0.0 0.0 0.00 0.00 0.00 76 945.0
20260509032435 11 0.0 0.0 0.00 0.00 0.00 76 945.0
20260509032136 11 0.0 0.0 0.00 0.00 0.00 76 945.0
20260509031836 11 0.0 0.0 0.00 0.00 0.00 76 945.0
20260509031536 11 0.0 0.0 0.00 0.00 0.00 76 945.0
20260509031236 10 0.0 0.0 0.00 0.00 0.00 76 945.0
20260509030939 10 0.0 0.0 0.00 0.00 0.00 76 945.0
20260509030635 10 0.0 0.0 0.00 0.00 0.00 76 945.0
20260509030335 10 0.0 0.0 0.00 0.00 0.00 76 945.0
20260509030036 10 0.0 0.0 0.00 0.00 0.00 76 945.0
20260509025436 10 0.0 0.0 0.00 0.00 0.00 77 945.0
20260509025136 10 0.0 0.0 0.00 0.00 0.00 77 945.0
20260509024836 10 0.0 0.0 0.00 0.00 0.00 77 945.0
20260509024536 10 0.0 0.0 0.00 0.00 0.00 78 944.0
20260509024235 10 0.0 0.0 0.00 0.00 0.00 78 944.0
20260509023935 10 0.0 0.0 0.00 0.00 0.00 78 944.0
20260509023635 10 0.0 0.0 0.00 0.00 0.00 78 944.0
20260509023335 10 0.0 0.0 0.00 0.00 0.00 78 944.0
20260509022735 10 0.0 0.0 0.00 0.00 0.00 81 945.0
20260509022435 10 0.0 0.0 0.00 0.00 0.00 81 945.0
20260509022136 10 0.0 0.0 0.00 0.00 0.00 81 945.0
20260509021835 10 0.0 0.0 0.00 0.00 0.00 81 945.0
20260509021535 10 0.0 0.0 0.00 0.00 0.00 81 945.0
20260509020935 10 0.0 0.0 0.00 0.00 0.00 81 945.0
20260509020636 10 0.0 0.0 0.00 0.00 0.00 81 945.0
20260509020036 10 0.0 0.0 0.00 0.00 0.00 81 945.0
20260509015736 10 0.0 0.0 0.00 0.00 0.00 81 945.0
20260509015436 10 0.0 0.0 0.00 0.00 0.00 81 944.0
20260509015136 10 0.0 0.0 0.00 0.00 0.00 81 944.0
20260509014835 10 0.0 0.0 0.00 0.00 0.00 81 944.0
20260509014536 10 0.0 0.0 0.00 0.00 0.00 81 944.0
20260509014236 10 0.0 0.0 0.00 0.00 0.00 81 944.0
20260509013936 11 0.0 0.0 0.00 0.00 0.00 79 944.0
20260509013636 11 0.0 0.0 0.00 0.00 0.00 79 944.0
20260509013336 11 0.0 0.0 0.00 0.00 0.00 79 945.0
20260509013035 11 0.0 0.0 0.00 0.00 0.00 79 945.0
20260509012736 11 0.0 0.0 0.00 0.00 0.00 80 945.0
20260509012436 11 0.0 0.0 0.00 0.00 0.00 80 945.0
20260509012136 11 0.0 0.0 0.00 0.00 0.00 80 945.0
20260509011836 11 0.0 0.0 0.00 0.00 0.00 80 945.0
20260509011536 11 0.0 0.0 0.00 0.00 0.00 80 945.0
20260509011236 11 0.0 0.0 0.00 0.00 0.00 78 945.0
20260509010935 11 0.0 0.0 0.00 0.00 0.00 78 945.0
20260509010636 11 0.0 0.0 0.00 0.00 0.00 78 945.0
20260509010336 11 0.0 0.0 0.00 0.00 0.00 78 945.0
20260509010036 12 0.0 0.0 0.00 0.00 0.00 76 945.7
20260509005436 12 0.0 0.0 0.00 0.00 0.00 76 945.0
20260509005135 12 0.0 0.0 0.00 0.00 0.00 76 945.0
20260509004836 12 0.0 0.0 0.00 0.00 0.00 76 945.0
20260509004536 12 0.0 0.0 0.00 0.00 0.00 76 945.0
20260509004236 11 0.0 0.0 0.00 0.00 0.00 76 946.0
20260509003936 11 0.0 0.0 0.00 0.00 0.00 76 946.0
20260509003336 11 0.0 0.0 0.00 0.00 0.00 76 946.0
20260509002735 11 0.0 0.0 0.00 0.00 0.00 76 946.0
20260509002435 12 0.0 0.0 0.00 0.00 0.00 76 946.0
20260509002136 12 0.0 0.0 0.00 0.00 0.00 76 946.0
20260509001836 12 0.0 0.0 0.00 0.00 0.00 76 946.0
20260509001536 12 0.0 0.0 0.00 0.00 0.00 76 946.0
20260509001235 12 0.0 0.0 0.00 0.00 0.00 76 946.0
20260509000635 12 0.0 0.0 0.00 0.00 0.00 76 946.0
20260509000335 11 0.0 0.0 0.00 0.00 0.00 76 946.1
20260509000036 11 0.0 0.0 0.00 0.00 0.00 78 946.0
20260508235736 11 0.0 0.0 0.00 0.00 0.00 78 946.0
20260508235436 11 0.0 0.0 0.00 0.00 0.00 78 946.0
20260508235136 11 0.0 0.0 0.00 0.00 0.00 78 946.0
20260508234835 11 0.0 0.0 0.00 0.00 0.00 78 946.0
20260508234536 11 0.0 0.0 0.00 0.00 0.00 78 946.0
20260508233935 11 0.0 0.0 0.00 0.00 0.00 78 946.0
20260508233636 11 0.0 0.0 0.00 0.00 0.00 78 946.0
20260508233036 11 0.0 0.0 0.00 0.00 0.00 78 946.0
20260508232735 11 0.0 0.0 0.00 0.00 0.00 78 946.4
20260508232436 11 0.0 0.0 0.00 0.00 0.00 78 946.4
20260508232135 11 0.0 0.0 0.00 0.00 0.00 78 946.4
20260508231835 11 0.0 0.0 0.00 0.00 0.00 78 946.4
20260508231535 11 0.0 0.0 0.00 0.00 0.00 78 946.4
20260508231235 11 0.0 0.0 0.00 0.00 0.00 78 946.4
20260508230935 11 0.0 0.0 0.00 0.00 0.00 78 946.4
20260508230336 11 0.0 0.0 0.00 0.00 0.00 79 946.0
20260508230036 11 0.0 0.0 0.00 0.00 0.00 79 946.0
20260508225735 11 0.0 0.0 0.00 0.00 0.00 79 946.0
20260508225435 11 0.0 0.0 0.00 0.00 0.00 79 946.0
20260508225136 11 0.0 0.0 0.00 0.00 0.00 79 946.0
20260508224836 11 0.0 0.0 0.00 0.00 0.00 79 946.0
20260508224536 11 0.0 0.0 0.00 0.00 0.00 79 946.0
20260508224236 11 0.0 0.0 0.00 0.00 0.00 79 946.0
20260508223936 11 0.0 0.0 0.00 0.00 0.00 79 946.0
20260508223635 11 0.0 0.0 0.00 0.00 0.00 79 946.0
20260508223335 11 0.0 0.0 0.00 0.00 0.00 78 946.7
20260508223035 11 0.0 0.0 0.00 0.00 0.00 78 946.7
20260508222736 11 0.0 0.0 0.00 0.00 0.00 78 946.7
20260508222435 11 0.0 0.0 0.00 0.00 0.00 78 946.7
20260508222135 11 0.0 0.0 0.00 0.00 0.00 78 946.7
20260508221836 11 0.0 0.0 0.00 0.00 0.00 78 946.7
20260508221536 11 0.0 0.0 0.00 0.00 0.00 78 946.7
20260508221236 11 0.0 0.0 0.00 0.00 0.00 78 946.7
20260508220936 11 0.0 0.0 0.00 0.00 0.00 78 946.7
20260508215735 12 0.0 0.0 0.00 0.00 0.00 76 946.0
20260508215436 12 0.0 0.0 0.00 0.00 0.00 76 946.0
20260508215136 12 0.0 0.0 0.00 0.00 0.00 76 946.0
20260508213935 12 0.0 0.0 0.00 0.00 0.00 76 946.0
20260508213635 12 0.0 0.0 0.00 0.00 0.00 74 947.0
20260508213336 12 0.0 0.0 0.00 0.00 0.00 74 947.0
20260508213036 12 0.0 0.0 0.00 0.00 0.00 74 947.0
20260508212736 12 0.0 0.0 0.00 0.00 0.00 74 947.0
20260508212436 12 0.0 0.0 0.00 0.00 0.00 74 947.0
20260508211836 12 0.0 0.0 0.00 0.00 0.00 74 947.0
20260508211536 12 0.0 0.0 0.00 0.00 0.00 74 947.0
20260508211236 12 0.0 0.0 0.00 0.00 0.00 74 946.9
20260508210636 12 0.0 0.0 0.00 0.00 0.00 72 946.0
20260508210335 12 0.0 0.0 0.00 0.00 0.00 72 946.0
20260508205736 12 0.0 0.0 0.00 0.00 0.00 72 946.0
20260508205435 12 0.0 0.0 0.00 0.00 0.00 72 946.0
20260508205136 12 0.0 0.0 0.00 0.00 0.00 72 946.0
20260508204836 12 0.0 0.0 0.00 0.00 0.00 72 946.0
20260508204536 12 0.0 0.0 0.00 0.00 0.00 72 946.0
20260508204235 12 0.0 0.0 0.00 0.00 0.00 72 946.0
20260508203936 12 0.0 0.0 0.00 0.00 0.00 72 946.0
20260508203636 12 0.0 0.0 0.00 0.00 0.00 72 946.0
20260508203336 12 0.0 0.0 0.00 0.00 0.00 72 946.0
20260508203036 12 0.0 0.0 0.00 0.00 0.00 72 946.0
20260508202736 12 0.0 0.0 0.00 0.00 0.00 72 946.0
20260508202435 12 0.0 0.0 0.00 0.00 0.00 72 946.0
20260508202136 13 0.0 0.0 0.00 0.00 0.00 72 946.5
20260508201835 13 0.0 0.0 0.00 0.00 0.00 72 946.5
20260508200936 13 0.0 0.0 0.00 0.00 0.00 71 946.0
20260508200635 13 0.0 0.0 0.00 0.00 0.00 71 946.0
20260508200336 13 0.0 0.0 0.00 0.00 0.00 70 946.0
20260508200036 13 0.0 0.0 0.00 0.00 0.00 70 946.0
20260508195736 13 0.0 0.0 0.00 0.00 0.00 70 946.0
20260508195436 13 0.0 0.0 0.00 0.00 0.00 70 946.0
20260508194835 13 0.0 0.0 0.00 0.00 0.00 70 946.0
20260508194535 13 0.0 0.0 0.00 0.00 0.00 71 945.0
20260508194236 13 0.0 0.0 0.00 0.00 0.00 71 945.0
20260508193935 13 0.0 0.0 0.00 0.00 0.00 71 945.0
20260508193636 13 0.0 0.0 0.00 0.00 0.00 71 945.0
20260508193036 13 0.0 0.0 0.00 0.00 0.00 71 945.0
20260508192736 13 0.0 0.0 0.00 0.00 0.00 70 945.9
20260508192435 13 0.0 0.0 0.00 0.00 0.00 70 945.9
20260508191835 14 0.0 0.0 0.00 0.00 0.00 69 945.0
20260508191536 14 0.0 0.0 0.00 0.00 0.00 69 945.0
20260508190936 14 0.0 0.0 0.00 0.00 0.00 66 945.0
20260508190636 14 0.0 0.0 0.00 0.00 0.00 66 945.0
20260508190336 14 0.0 0.0 0.00 0.00 0.00 66 945.0
20260508190036 15 0.0 0.0 0.00 0.00 0.00 61 945.0
20260508185436 15 0.0 0.0 0.00 0.00 0.00 61 945.0
20260508185136 15 0.0 0.0 0.00 0.00 0.00 59 945.0
20260508184835 15 0.0 0.0 0.00 0.00 0.00 59 945.0
20260508184536 15 0.0 0.0 0.00 0.00 0.00 59 945.0
20260508184235 16 0.0 0.0 0.00 0.00 0.00 53 945.0
20260508183935 16 0.0 0.0 0.00 0.00 0.00 53 945.0
20260508183636 16 0.0 0.0 0.00 0.00 0.00 50 945.1
20260508183336 16 0.0 0.0 0.00 0.00 0.00 50 945.1
20260508183036 16 0.0 0.0 0.00 0.00 0.00 50 945.1
20260508182735 16 0.0 0.0 0.00 0.00 0.00 50 945.1
20260508182436 16 0.0 0.0 0.00 0.00 0.00 49 945.0
20260508182136 16 0.0 0.0 0.00 0.00 0.00 49 945.0
20260508181836 16 0.0 0.0 0.00 0.00 0.00 49 945.0
20260508181536 17 0.0 0.0 0.00 0.00 0.00 51 945.0
20260508181235 17 0.0 0.0 0.00 0.00 0.00 51 945.0
20260508180336 17 0.0 0.0 0.00 0.00 0.00 51 945.0
20260508180036 17 0.0 0.0 0.00 0.00 0.00 51 945.0
20260508175736 17 0.0 0.0 0.00 0.00 0.00 51 945.0
20260508175436 17 0.0 0.0 0.00 0.00 0.00 51 945.0
20260508175136 17 0.0 0.0 0.00 0.00 0.00 51 945.0
20260508174836 17 0.0 0.0 0.00 0.00 0.00 51 945.0
20260508174536 17 0.0 0.0 0.00 0.00 0.00 51 945.0
20260508174236 17 0.0 0.0 0.00 0.00 0.00 51 945.0
20260508173935 17 0.0 0.0 0.00 0.00 0.00 51 945.0
20260508173636 17 0.0 0.0 0.00 0.00 0.00 51 945.0
20260508172736 17 0.0 0.0 0.00 0.00 0.00 51 944.0
20260508172436 17 0.0 0.0 0.00 0.00 0.00 51 944.0
20260508172136 17 0.0 0.0 0.00 0.00 0.00 51 944.0
20260508171835 17 0.0 0.0 0.00 0.00 0.00 51 944.0
20260508171535 17 0.0 0.0 0.00 0.00 0.00 51 944.0
20260508171236 17 0.0 0.0 0.00 0.00 0.00 51 944.0
20260508170936 17 0.0 0.0 0.00 0.00 0.00 51 944.0
20260508170635 17 0.0 0.0 0.00 0.00 0.00 51 944.0
20260508170335 17 0.0 0.0 0.00 0.00 0.00 51 944.0
20260508170036 17 0.0 0.0 0.00 0.00 0.00 51 944.0
20260508164535 17 0.0 0.0 0.00 0.00 0.00 55 944.0
20260508164235 17 0.0 0.0 0.00 0.00 0.00 55 944.0
20260508163936 17 0.0 0.0 0.00 0.00 0.00 55 944.0
20260508163635 17 0.0 0.0 0.00 0.00 0.00 55 944.0
20260508163035 17 0.0 0.0 0.00 0.00 0.00 57 944.0
20260508162736 17 0.0 0.0 0.00 0.00 0.00 57 944.0
20260508162435 17 0.0 0.0 0.00 0.00 0.00 57 944.0
20260508162136 17 0.0 0.0 0.00 0.00 0.00 57 944.0
20260508161836 17 0.0 0.0 0.00 0.00 0.00 57 944.0
20260508161535 17 0.0 0.0 0.00 0.00 0.00 57 944.0
20260508161235 17 0.0 0.0 0.00 0.00 0.00 57 944.0
20260508160936 17 0.0 0.0 0.00 0.00 0.00 57 944.0
20260508160636 17 0.0 0.0 0.00 0.00 0.00 57 944.0
20260508160335 17 0.0 0.0 0.00 0.00 0.00 57 944.0
20260508160036 17 0.0 0.0 0.00 0.00 0.00 57 944.0
20260508155735 17 0.0 0.0 0.00 0.00 0.00 57 944.0
20260508155436 17 0.0 0.0 0.00 0.00 0.00 57 944.0
20260508155136 17 0.0 0.0 0.00 0.00 0.00 57 944.0
20260508154835 17 0.0 0.0 0.00 0.00 0.00 57 944.0
20260508154236 17 0.0 0.0 0.00 0.00 0.00 56 944.7
20260508153636 17 0.0 0.0 0.00 0.00 0.00 57 944.0
20260508152436 17 0.0 0.0 0.00 0.00 0.00 57 944.0
20260508152136 17 0.0 0.0 0.00 0.00 0.00 57 944.0
20260508151836 17 0.0 0.0 0.00 0.00 0.00 57 944.0
20260508151536 17 0.0 0.0 0.00 0.00 0.00 57 944.0
20260508151235 17 0.0 0.0 0.00 0.00 0.00 57 944.0
20260508150935 17 0.0 0.0 0.00 0.00 0.00 57 944.0
20260508150636 17 0.0 0.0 0.00 0.00 0.00 57 944.0
20260508150335 17 0.0 0.0 0.00 0.00 0.00 57 944.0
20260508150036 17 0.0 0.0 0.00 0.00 0.00 57 945.0
20260508145736 17 0.0 0.0 0.00 0.00 0.00 57 945.0
20260508145436 17 0.0 0.0 0.00 0.00 0.00 57 945.0
20260508145136 17 0.0 0.0 0.00 0.00 0.00 57 945.0
20260508144536 17 0.0 0.0 0.00 0.00 0.00 57 945.0
20260508144236 17 0.0 0.0 0.00 0.00 0.00 56 945.0
20260508143936 17 0.0 0.0 0.00 0.00 0.00 56 945.0
20260508143635 17 0.0 0.0 0.00 0.00 0.00 56 945.0
20260508143335 17 0.0 0.0 0.00 0.00 0.00 56 945.0
20260508143036 17 0.0 0.0 0.00 0.00 0.00 56 945.0
20260508142735 17 0.0 0.0 0.00 0.00 0.00 56 945.0
20260508142436 17 0.0 0.0 0.00 0.00 0.00 56 945.0
20260508142135 17 0.0 0.0 0.00 0.00 0.00 56 945.0
20260508141836 17 0.0 0.0 0.00 0.00 0.00 56 945.0
20260508141536 17 0.0 0.0 0.00 0.00 0.00 58 945.0
20260508141236 17 0.0 0.0 0.00 0.00 0.00 58 945.0
20260508140936 17 0.0 0.0 0.00 0.00 0.00 58 945.0
20260508140636 17 0.0 0.0 0.00 0.00 0.00 58 945.0
20260508140036 17 0.0 0.0 0.00 0.00 0.00 58 945.0
20260508135436 17 0.0 0.0 0.00 0.00 0.00 60 944.0
20260508135136 17 0.0 0.0 0.00 0.00 0.00 62 944.9
20260508134836 17 0.0 0.0 0.00 0.00 0.00 62 944.9
20260508134536 17 0.0 0.0 0.00 0.00 0.00 62 945.0
20260508134235 17 0.0 0.0 0.00 0.00 0.00 62 945.0
20260508133636 17 0.0 0.0 0.00 0.00 0.00 62 945.0
20260508133336 17 0.0 0.0 0.00 0.00 0.00 62 945.0
20260508133036 17 0.0 0.0 0.00 0.00 0.00 62 945.0
20260508132736 16 0.0 0.0 0.00 0.00 0.00 62 945.0
20260508132436 16 0.0 0.0 0.00 0.00 0.00 63 945.0
20260508131235 16 0.0 0.0 0.00 0.00 0.00 63 945.0
20260508130936 15 0.0 0.0 0.00 0.00 0.00 65 945.0
20260508130636 15 0.0 0.0 0.00 0.00 0.00 65 945.0
20260508125736 15 0.0 0.0 0.00 0.00 0.00 71 946.0
20260508125436 16 0.0 0.0 0.00 0.00 0.00 69 946.0
20260508125135 16 0.0 0.0 0.00 0.00 0.00 63 946.2
20260508124536 16 0.0 0.0 0.00 0.00 0.00 58 945.0
20260508124235 16 0.0 0.0 0.00 0.00 0.00 58 945.0
20260508123936 16 0.0 0.0 0.00 0.00 0.00 58 945.0
20260508123636 16 0.0 0.0 0.00 0.00 0.00 57 945.0
20260508123035 16 0.0 0.0 0.00 0.00 0.00 57 945.0
20260508122735 16 0.0 0.0 0.00 0.00 0.00 57 945.0
20260508122436 16 0.0 0.0 0.00 0.00 0.00 55 945.0
20260508122136 17 0.0 0.0 0.00 0.00 0.00 54 945.0
20260508121835 17 0.0 0.0 0.00 0.00 0.00 55 945.0
20260508121235 17 0.0 0.0 0.00 0.00 0.00 56 945.0
20260508120936 17 0.0 0.0 0.00 0.00 0.00 56 945.0
20260508120636 16 0.0 0.0 0.00 0.00 0.00 55 945.0
20260508120336 17 0.0 0.0 0.00 0.00 0.00 54 945.7
20260508120036 17 0.0 0.0 0.00 0.00 0.00 54 945.7
20260508115735 17 0.0 0.0 0.00 0.00 0.00 56 945.0
20260508115436 17 0.0 0.0 0.00 0.00 0.00 56 945.0
20260508115136 17 0.0 0.0 0.00 0.00 0.00 58 946.0
20260508114836 17 0.0 0.0 0.00 0.00 0.00 58 946.0
20260508114235 17 0.0 0.0 0.00 0.00 0.00 57 946.0
20260508113935 17 0.0 0.0 0.00 0.00 0.00 57 946.0
20260508113636 17 0.0 0.0 0.00 0.00 0.00 59 946.0
20260508113036 17 0.0 0.0 0.00 0.00 0.00 59 946.0
20260508112736 17 0.0 0.0 0.00 0.00 0.00 61 946.0
20260508112435 17 0.0 0.0 0.00 0.00 0.00 61 946.0
20260508112135 16 0.0 0.0 0.00 0.00 0.00 63 946.0
20260508111836 16 0.0 0.0 0.00 0.00 0.00 63 946.0
20260508111536 16 0.0 0.0 0.00 0.00 0.00 64 946.0
20260508111235 15 0.0 0.0 0.00 0.00 0.00 67 946.0
20260508110636 13 0.0 0.0 0.00 0.00 0.00 69 946.6
20260508110336 13 0.0 0.0 0.00 0.00 0.00 69 946.0
20260508110036 13 0.0 0.0 0.00 0.00 0.00 69 946.0
20260508105735 13 0.0 0.0 0.00 0.00 0.00 69 946.0
20260508105136 13 0.0 0.0 0.00 0.00 0.00 69 946.0
20260508104836 13 0.0 0.0 0.00 0.00 0.00 67 946.0
20260508104236 15 0.0 0.0 0.00 0.00 0.00 66 947.0
20260508103935 15 0.0 0.0 0.00 0.00 0.00 66 947.0
20260508103636 15 0.0 0.0 0.00 0.00 0.00 66 947.0
20260508103335 15 0.0 0.0 0.00 0.00 0.00 65 946.0
20260508102735 15 0.0 0.0 0.00 0.00 0.00 65 946.0
20260508102436 16 0.0 0.0 0.00 0.00 0.00 62 946.0
20260508102136 16 0.0 0.0 0.00 0.00 0.00 62 946.0
20260508101836 16 0.0 0.0 0.00 0.00 0.00 62 946.0
20260508101535 16 0.0 0.0 0.00 0.00 0.00 62 946.7
20260508101236 16 0.0 0.0 0.00 0.00 0.00 61 946.0
20260508100935 17 0.0 0.0 0.00 0.00 0.00 60 946.0
20260508100636 17 0.0 0.0 0.00 0.00 0.00 60 946.0
20260508100336 17 0.0 0.0 0.00 0.00 0.00 60 946.0
20260508100036 17 0.0 0.0 0.00 0.00 0.00 60 946.0
20260508095735 17 0.0 0.0 0.00 0.00 0.00 60 946.0
20260508095436 17 0.0 0.0 0.00 0.00 0.00 59 946.0
20260508095136 17 0.0 0.0 0.00 0.00 0.00 59 946.0
20260508094836 16 0.0 0.0 0.00 0.00 0.00 61 946.0
20260508094535 16 0.0 0.0 0.00 0.00 0.00 59 946.0
20260508094236 17 0.0 0.0 0.00 0.00 0.00 59 946.0
20260508093935 17 0.0 0.0 0.00 0.00 0.00 59 946.0
20260508093636 17 0.0 0.0 0.00 0.00 0.00 59 946.0
20260508093335 17 0.0 0.0 0.00 0.00 0.00 59 946.0
20260508093036 17 0.0 0.0 0.00 0.00 0.00 59 946.0
20260508092736 16 0.0 0.0 0.00 0.00 0.00 61 946.0
20260508092436 16 0.0 0.0 0.00 0.00 0.00 61 946.0
20260508092135 15 0.0 0.0 0.00 0.00 0.00 62 946.0
20260508091536 15 0.0 0.0 0.00 0.00 0.00 62 946.2
20260508091236 14 0.0 0.0 0.00 0.00 0.00 64 946.0
20260508090336 14 0.0 0.0 0.00 0.00 0.00 64 946.0
20260508090035 13 0.0 0.0 0.00 0.00 0.00 66 946.0
20260508085435 13 0.0 0.0 0.00 0.00 0.00 67 946.0
20260508085135 13 0.0 0.0 0.00 0.00 0.00 67 946.0
20260508084836 13 0.0 0.0 0.00 0.00 0.00 68 946.0
20260508084536 13 0.0 0.0 0.00 0.00 0.00 68 946.0
20260508084236 13 0.0 0.0 0.00 0.00 0.00 68 946.0
20260508083935 12 0.0 0.0 0.00 0.00 0.00 70 946.0
20260508083635 12 0.0 0.0 0.00 0.00 0.00 70 946.0
20260508083335 12 0.0 0.0 0.00 0.00 0.00 70 946.0
20260508083035 12 0.0 0.0 0.00 0.00 0.00 70 946.0
20260508082736 12 0.0 0.0 0.00 0.00 0.00 71 946.1
20260508082436 12 0.0 0.0 0.00 0.00 0.00 71 946.1
20260508082136 12 0.0 0.0 0.00 0.00 0.00 71 946.1
20260508081836 12 0.0 0.0 0.00 0.00 0.00 71 946.0
20260508081536 11 0.0 0.0 0.00 0.00 0.00 73 946.0
20260508081236 11 0.0 0.0 0.00 0.00 0.00 73 946.0
20260508080936 11 0.0 0.0 0.00 0.00 0.00 73 946.0
20260508080635 11 0.0 0.0 0.00 0.00 0.00 74 946.0
20260508080336 11 0.0 0.0 0.00 0.00 0.00 74 946.0
20260508075736 11 0.0 0.0 0.00 0.00 0.00 74 946.0
20260508075436 11 0.0 0.0 0.00 0.00 0.00 74 946.0
20260508075135 11 0.0 0.0 0.00 0.00 0.00 74 946.0
20260508074835 11 0.0 0.0 0.00 0.00 0.00 74 946.0
20260508074536 11 0.0 0.0 0.00 0.00 0.00 74 946.0
20260508074236 11 0.0 0.0 0.00 0.00 0.00 74 946.0
20260508073936 11 0.0 0.0 0.00 0.00 0.00 74 946.0
20260508073336 11 0.0 0.0 0.00 0.00 0.00 74 946.0
20260508073036 11 0.0 0.0 0.00 0.00 0.00 74 946.2
20260508072735 11 0.0 0.0 0.00 0.00 0.00 74 946.2
20260508072435 10 0.0 0.0 0.00 0.00 0.00 75 946.0
20260508072136 10 0.0 0.0 0.00 0.00 0.00 75 946.0
20260508071835 10 0.0 0.0 0.00 0.00 0.00 75 946.0
20260508071536 10 0.0 0.0 0.00 0.00 0.00 75 946.0
20260508071236 10 0.0 0.0 0.00 0.00 0.00 75 946.0